• In Latvia
  • List of Countries
  • For 7 days
  • Water Temperature
  • Satellite Maps
  • Weather Map
  • Weather Widgets
  • user-avatar
    Login

    Hourly Weather Benguela

    Today, 6 December, Tuesday

    Time Temperature Precipitation Wind Pressure Humidity
    00:00 +28°C° 0 mm 1 mps 758 mmHg 84%
    01:00 +28°C° 0 mm 1 mps 758 mmHg 87%
    02:00 +28°C° 0.7 mm 1 mps 758 mmHg 88%
    03:00 +28°C° 0.7 mm 1 mps 758 mmHg 88%
    04:00 +28°C° 0.7 mm 1 mps 758 mmHg 89%
    05:00 +28°C° 1.2 mm 1 mps 758 mmHg 88%
    06:00 +28°C° 1.2 mm 1 mps 759 mmHg 88%
    07:00 +28°C° 0 mm 1 mps 759 mmHg 88%
    08:00 +29°C° 0.6 mm 1 mps 759 mmHg 83%
    09:00 +30°C° 0.6 mm 1 mps 759 mmHg 79%
    10:00 +30°C° 0.6 mm 1 mps 759 mmHg 75%
    11:00 +31°C° 0.1 mm 2 mps 759 mmHg 69%
    12:00 +34°C° 0.1 mm 2 mps 758 mmHg 64%
    13:00 +32°C° 0 mm 2 mps 758 mmHg 68%
    14:00 +33°C° 0 mm 3 mps 757 mmHg 67%
    15:00 +33°C° 0 mm 3 mps 757 mmHg 66%
    16:00 +33°C° 0 mm 3 mps 757 mmHg 65%
    17:00 +31°C° 0.1 mm 3 mps 757 mmHg 70%
    18:00 +30°C° 0.1 mm 2 mps 758 mmHg 75%
    19:00 +29°C° 0.1 mm 2 mps 759 mmHg 80%
    20:00 +29°C° 0 mm 1 mps 759 mmHg 82%
    21:00 +28°C° 0 mm 1 mps 759 mmHg 84%
    22:00 +28°C° 0 mm 1 mps 760 mmHg 86%
    23:00 +28°C° 0 mm 1 mps 759 mmHg 87%

    Tomorrow, 7 December, Wednesday

    Time Temperature Precipitation Wind Pressure Humidity
    00:00 +28°C° 0 mm 1 mps 759 mmHg 88%
    01:00 +28°C° 0 mm 1 mps 759 mmHg 88%
    02:00 +27°C° 0 mm 1 mps 759 mmHg 89%
    03:00 +27°C° 0 mm 1 mps 759 mmHg 90%
    04:00 +27°C° 0 mm 1 mps 758 mmHg 90%
    05:00 +28°C° 0 mm 1 mps 759 mmHg 87%
    06:00 +28°C° 0 mm 1 mps 759 mmHg 84%
    07:00 +28°C° 0 mm 1 mps 759 mmHg 81%
    08:00 +30°C° 0 mm 1 mps 759 mmHg 72%
    09:00 +32°C° 0 mm 2 mps 759 mmHg 64%
    10:00 +34°C° 0 mm 2 mps 759 mmHg 55%
    11:00 +35°C° 0 mm 3 mps 758 mmHg 54%
    12:00 +35°C° 0 mm 4 mps 758 mmHg 53%
    13:00 +36°C° 0 mm 5 mps 757 mmHg 52%
    14:00 +35°C° 0 mm 5 mps 757 mmHg 55%
    15:00 +35°C° 0 mm 5 mps 757 mmHg 58%
    16:00 +34°C° 0 mm 5 mps 756 mmHg 61%
    17:00 +33°C° 0.2 mm 5 mps 757 mmHg 68%
    18:00 +32°C° 0.2 mm 4 mps 757 mmHg 74%
    19:00 +29°C° 0.2 mm 4 mps 758 mmHg 81%
    20:00 +29°C° 0.1 mm 3 mps 758 mmHg 82%
    21:00 +29°C° 0.1 mm 3 mps 759 mmHg 83%
    22:00 +29°C° 0.1 mm 3 mps 759 mmHg 84%
    23:00 +28°C° 0 mm 3 mps 759 mmHg 85%

    Day after tomorrow, 8 December, Thursday

    Time Temperature Precipitation Wind Pressure Humidity
    00:00 +28°C° 0 mm 3 mps 759 mmHg 86%
    01:00 +28°C° 0 mm 2 mps 758 mmHg 87%
    02:00 +28°C° 0 mm 2 mps 758 mmHg 87%
    03:00 +28°C° 0 mm 2 mps 758 mmHg 87%
    04:00 +28°C° 0 mm 1 mps 758 mmHg 88%
    05:00 +28°C° 0 mm 1 mps 758 mmHg 86%
    06:00 +28°C° 0 mm 1 mps 759 mmHg 84%
    07:00 +29°C° 0 mm 1 mps 759 mmHg 82%
    08:00 +30°C° 0 mm 2 mps 759 mmHg 75%
    09:00 +31°C° 0 mm 2 mps 759 mmHg 68%
    10:00 +34°C° 0 mm 2 mps 759 mmHg 61%
    11:00 +34°C° 0.6 mm 3 mps 759 mmHg 61%
    12:00 +35°C° 0.6 mm 4 mps 758 mmHg 60%
    13:00 +35°C° 0.6 mm 5 mps 757 mmHg 59%
    14:00 +34°C° 0.5 mm 5 mps 757 mmHg 64%
    15:00 +33°C° 0.5 mm 4 mps 757 mmHg 69%
    16:00 +32°C° 0.5 mm 4 mps 757 mmHg 74%
    17:00 +30°C° 0.5 mm 3 mps 757 mmHg 78%
    18:00 +30°C° 0.5 mm 3 mps 758 mmHg 82%
    19:00 +29°C° 0.5 mm 3 mps 758 mmHg 86%
    20:00 +29°C° 0.2 mm 2 mps 759 mmHg 87%
    21:00 +29°C° 0.2 mm 2 mps 759 mmHg 87%
    22:00 +28°C° 0.2 mm 2 mps 759 mmHg 88%
    23:00 +28°C° 0 mm 2 mps 759 mmHg 89%

    9 December, Friday

    Time Temperature Precipitation Wind Pressure Humidity
    00:00 +28°C° 0 mm 2 mps 759 mmHg 89%
    01:00 +28°C° 0 mm 2 mps 758 mmHg 90%
    02:00 +28°C° 0 mm 2 mps 758 mmHg 89%
    03:00 +28°C° 0 mm 2 mps 758 mmHg 89%
    04:00 +28°C° 0 mm 2 mps 758 mmHg 89%
    05:00 +28°C° 0.1 mm 2 mps 758 mmHg 88%
    06:00 +29°C° 0.1 mm 1 mps 759 mmHg 86%
    07:00 +29°C° 0.1 mm 1 mps 759 mmHg 84%
    08:00 +30°C° 0.2 mm 1 mps 759 mmHg 78%
    09:00 +31°C° 0.2 mm 2 mps 759 mmHg 73%
    10:00 +32°C° 0.2 mm 2 mps 760 mmHg 67%
    11:00 +34°C° 0.4 mm 3 mps 759 mmHg 66%
    12:00 +34°C° 0.4 mm 4 mps 758 mmHg 64%
    13:00 +35°C° 0.4 mm 5 mps 758 mmHg 63%
    14:00 +34°C° 0.4 mm 5 mps 757 mmHg 66%
    15:00 +33°C° 0.4 mm 5 mps 757 mmHg 69%
    16:00 +32°C° 0.4 mm 5 mps 757 mmHg 72%
    17:00 +30°C° 0.1 mm 4 mps 757 mmHg 76%
    18:00 +30°C° 0.1 mm 3 mps 758 mmHg 79%
    19:00 +29°C° 0.1 mm 3 mps 759 mmHg 83%
    20:00 +29°C° 0 mm 2 mps 759 mmHg 84%
    21:00 +28°C° 0 mm 2 mps 759 mmHg 85%
    22:00 +28°C° 0 mm 2 mps 760 mmHg 87%
    23:00 +28°C° 0.1 mm 2 mps 759 mmHg 87%

    10 December, Saturday

    Time Temperature Precipitation Wind Pressure Humidity
    00:00 +28°C° 0.1 mm 1 mps 759 mmHg 88%
    01:00 +28°C° 0.1 mm 1 mps 759 mmHg 88%
    02:00 +28°C° 0.3 mm 1 mps 758 mmHg 88%
    03:00 +27°C° 0.3 mm 2 mps 758 mmHg 89%
    04:00 +27°C° 0.3 mm 2 mps 758 mmHg 89%
    05:00 +27°C° 0.3 mm 1 mps 758 mmHg 88%
    06:00 +28°C° 0.3 mm 1 mps 759 mmHg 86%
    07:00 +28°C° 0.3 mm 1 mps 759 mmHg 85%
    08:00 +29°C° 0 mm 1 mps 759 mmHg 79%
    09:00 +30°C° 0 mm 1 mps 759 mmHg 73%
    10:00 +31°C° 0 mm 1 mps 759 mmHg 67%
    11:00 +32°C° 0.1 mm 2 mps 759 mmHg 64%
    12:00 +34°C° 0.1 mm 3 mps 758 mmHg 62%
    13:00 +34°C° 0.1 mm 4 mps 757 mmHg 60%
    14:00 +34°C° 0.1 mm 4 mps 757 mmHg 64%
    15:00 +33°C° 0.1 mm 4 mps 756 mmHg 68%
    16:00 +32°C° 0.1 mm 4 mps 756 mmHg 72%
    17:00 +30°C° 0.2 mm 4 mps 757 mmHg 76%
    18:00 +29°C° 0.2 mm 3 mps 757 mmHg 80%
    19:00 +29°C° 0.2 mm 2 mps 758 mmHg 84%
    20:00 +28°C° 0.1 mm 2 mps 758 mmHg 85%
    21:00 +28°C° 0.1 mm 2 mps 759 mmHg 86%
    22:00 +28°C° 0.1 mm 1 mps 759 mmHg 87%
    23:00 +28°C° 0 mm 1 mps 759 mmHg 87%

    11 December, Sunday

    Time Temperature Precipitation Wind Pressure Humidity
    00:00 +28°C° 0 mm 1 mps 758 mmHg 88%
    01:00 +28°C° 0 mm 1 mps 757 mmHg 88%
    02:00 +28°C° 0 mm 1 mps 757 mmHg 88%
    03:00 +28°C° 0 mm 1 mps 757 mmHg 88%
    04:00 +28°C° 0 mm 1 mps 757 mmHg 88%
    05:00 +28°C° 0 mm 1 mps 758 mmHg 87%
    06:00 +26°C° 0 mm 0 mps 758 mmHg 86%
    07:00 +26°C° 0 mm 0 mps 758 mmHg 84%
    08:00 +29°C° 0 mm 1 mps 758 mmHg 79%
    09:00 +30°C° 0 mm 2 mps 759 mmHg 73%
    10:00 +31°C° 0 mm 2 mps 759 mmHg 68%
    11:00 +33°C° 0.2 mm 3 mps 758 mmHg 67%
    12:00 +33°C° 0.2 mm 4 mps 757 mmHg 66%
    13:00 +33°C° 0.2 mm 4 mps 757 mmHg 65%
    14:00 +33°C° 0.1 mm 4 mps 757 mmHg 65%
    15:00 +33°C° 0.1 mm 4 mps 756 mmHg 66%
    16:00 +33°C° 0.1 mm 4 mps 756 mmHg 66%
    17:00 +31°C° 0 mm 3 mps 757 mmHg 71%
    18:00 +30°C° 0 mm 2 mps 757 mmHg 76%
    19:00 +29°C° 0 mm 1 mps 758 mmHg 81%
    20:00 +29°C° 0.1 mm 1 mps 758 mmHg 83%
    21:00 +28°C° 0.1 mm 1 mps 758 mmHg 84%
    22:00 +28°C° 0.1 mm 1 mps 758 mmHg 86%
    23:00 +28°C° 0.1 mm 1 mps 758 mmHg 87%
    Show more